Weather in Campos dos Goytacazes

Brazil     21°45′16″S   41°19′27″W
temp.,
°C
wind,
m/s
gust,
m/s
humid.,
%
clouds,
%
prec.,
mm/h
press.,
hPa
HPBL,
m
17 may, mon
mon1700:00+18n11873 0.0 101911
03:00+17wnw118996 0.0 101811
06:00+17nw229014 0.0 101818
09:00+23n35675 0.0 1019620
12:00+27ne44529 0.0 10171412
15:00+25ene6664100 0.0 1015583
18:00+21ne51080100 0.0 1015324
21:00+20nne488618 0.0 1016210
18 may, tue
tue1800:00+19nnw229296 0.0 101614
03:00+18wnw2293100 0.0 101412
06:00+18w229396 0.0 101526
09:00+23wsw236970 0.0 1017401
12:00+28ssw335220 0.0 10151519
15:00+25s556026 0.5 1014751
18:00+20s49793 0.0 1016253
21:00+18ssw23930 0.0 101766
19 may, wed
wed1900:00+18wsw119410 0.0 101712
03:00+18wsw229540 0.0 101620
06:00+18sw229398 0.0 101757
09:00+21w2280100 0.0 1018220
12:00+25nw23575 0.0 10161214
15:00+27nw235321 0.0 10141340
18:00+19ese34885 0.0 101669
21:00+18ssw229361 0.0 101717
20 may, thu
thu2000:00+19wsw119130 0.0 101618
03:00+18wsw119314 0.0 101511
06:00+18w119196 0.0 101627
09:00+21nnw2278100 0.0 1018279
12:00+27nnw33577 0.0 10151145
15:00+28nne235313 0.0 10131386
18:00+20e35925 0.0 101590
21:00+19ssw119447 0.0 101613
21 may, fri
fri2100:00+20ssw1191100 0.0 101555
03:00+20ssw2389100 0.0 1015128
06:00+20sw239097 0.0 1015123
09:00+22w118299 0.2 1017266
12:00+26wnw116230 0.0 10151084
15:00+28e22545 0.0 10121267
18:00+20ese36943 0.0 1014129
21:00+20e119632 0.0 101515